Location: Gälforsberget
(66.6500°N, 22.4167°E)
Time: 20:07:46
(UTC+00:00)

Cosmos 1934 Rocket - Pass Details

Date: 11 April 2026
Orbit: 936 x 999 km, 83.0° (Epoch: 16 May)

Event Time Altitude Azimuth Distance (km) Brightness Sun altitude
Exits shadow 22:03:45 - 216° (SW) 2,799 6.0 -14.6°
Reaches altitude 10° 22:03:54 10° 217° (SW) 2,749 5.9 -14.6°
Maximum altitude 22:10:08 61° 297° (WNW) 1,111 4.5 -14.7°
Drops below altitude 10° 22:16:19 10° 18° (NNE) 2,719 7.5 -14.7°
Sets 22:18:51 0° 22° (NNE) 3,659 8.2 -14.7°
